[[{"header":{"parameterUnit":"m.s-1","parameterCategory":1,"la1":30.2991,"la2":30.254,"lo1":-89.0895,"lo2":-89.0444,"dy":0.0017,"dx":0.0017,"nx":28,"ny":28,"refTime":"2025-06-04T21:00:00:Z","depth":0,"parameterNumber":2,"parameterNumberName":"U-component_of_WINDS"},"data":[0,0,0,0,0,0,0,0,0,0,0,0,0,0,0,0,0,0,0,0,0,0,0,0,0,0,0,0,0,0,0,0,0,0,0,0,0,0,0,0,0,0,0,0,0,0,0,0,0,0,0,0,0,0,0,0,0,0,1.6888,1.6889,0,1.6952,1.6952,1.6953,1.6982,1.6982,1.6982,1.6982,1.7049,1.705,1.7052,0,0,0,0,0,0,0,0,0,0,0,0,0,1.6795,1.6796,1.6888,1.6889,1.689,1.6951,1.6952,1.6953,1.6982,1.6982,1.6982,1.6982,1.7048,1.705,1.7052,0,0,0,0,0,0,0,0,0,0,0,0,0,1.6844,1.6797,1.6888,1.6912,1.6915,1.6951,1.6952,1.6953,1.6982,1.6982,1.6982,1.6982,1.7047,1.705,1.7053,1.7071,0,0,1.7061,1.7062,0,0,0,0,0,0,0,0,1.6842,1.6848,1.6908,1.691,1.6913,1.6959,1.6944,1.6993,1.6982,1.6957,1.6982,1.6982,1.7019,1.7024,1.7036,1.7074,1.7077,1.7061,1.7063,1.7064,1.7065,0,0,0,0,0,0,0,1.6838,1.6845,1.6913,1.6908,1.6912,1.692,1.6927,1.6953,1.6988,1.6959,1.6961,1.6968,1.7021,1.7033,1.7038,1.7078,1.7061,1.7064,1.7065,1.7066,1.7135,1.7135,0,0,0,0,0,0,1.6831,1.6842,1.6911,1.6915,1.6876,1.6922,1.6929,1.6944,1.6987,1.6994,1.6968,1.6969,1.7029,1.7035,1.704,1.7065,1.7064,1.7067,1.7068,1.7135,1.7135,1.7135,0,0,0,0,0,0,1.6828,1.6836,1.6909,1.6879,1.6889,1.6923,1.694,1.6946,1.6959,1.6994,1.7001,1.6975,1.7029,1.7036,1.7063,1.7068,1.7068,1.707,1.7134,1.7135,1.7135,1.7114,0,0,0,0,0,0,1.6826,1.6835,1.6842,1.6879,1.6891,1.693,1.694,1.6947,1.6963,1.6965,1.7002,1.7008,1.7029,1.7059,1.7066,1.7071,1.7072,1.7134,1.7134,1.7135,1.7114,1.7113,1.7113,0,0,0,0,0,1.6822,1.6834,1.6843,1.6851,1.69,1.693,1.6937,1.696,1.6963,1.6971,1.6994,1.7007,1.7066,1.7061,1.7069,1.7076,1.7134,1.7134,1.7135,1.7115,1.7114,1.7113,0,0,0,0,0,0,1.6798,1.684,1.6849,1.6874,1.6898,1.6935,1.6945,1.6958,1.6983,1.6984,1.7012,1.7021,1.7045,1.7063,1.7057,1.7096,1.7101,1.7103,1.7083,1.7082,1.7082,1.7077,1.7075,0,0,0,0,0,1.6795,1.6816,1.6851,1.687,1.6881,1.6911,1.6925,1.6941,1.6968,1.6978,1.7003,1.7029,1.7054,1.7069,1.7093,1.7117,1.7126,1.7126,1.7125,1.7124,1.7125,1.7139,1.714,1.7136,1.7136,1.7136,0,0,1.679,1.6816,1.6827,1.6865,1.6886,1.6907,1.692,1.6941,1.6958,1.6982,1.7009,1.7028,1.7058,1.7084,1.7096,1.71,1.7128,1.7124,1.7123,1.7125,1.714,1.714,1.714,1.7137,1.7136,1.7136,0,0,1.6792,1.6813,1.683,1.6851,1.6882,1.6902,1.6906,1.6941,1.6954,1.6981,1.7,1.702,1.7061,1.7082,1.7098,1.7108,1.7121,1.7115,1.7111,1.7124,1.7124,1.7125,1.7128,1.7129,1.7116,1.7116,1.7116,0,1.6782,1.6814,1.6838,1.6859,1.6875,1.6897,1.6916,1.6935,1.6972,1.6983,1.6987,1.7039,1.7061,1.7092,1.7094,1.7106,1.7112,1.7111,1.7122,1.7123,1.7124,1.7127,1.7129,1.7115,1.7115,1.7116,1.7116,0,1.68,1.6822,1.6833,1.6868,1.6886,1.6905,1.6932,1.6947,1.6962,1.6981,1.7008,1.7036,1.7066,1.7075,1.7089,1.7107,1.7109,1.7117,1.7122,1.7123,1.7127,1.7128,1.7114,1.7114,1.7115,1.7115,0,0,1.6789,1.6837,1.684,1.6856,1.6892,1.691,1.693,1.6959,1.6972,1.6997,1.7015,1.7049,1.7057,1.7075,1.7092,1.7104,1.711,1.7111,1.7112,1.711,1.7132,1.7126,1.7127,1.7119,1.7119,1.712,1.713,0,1.6795,1.6833,1.6855,1.6883,1.6904,1.6925,1.6943,1.6968,1.6986,1.7007,1.7028,1.7052,1.706,1.7071,1.7084,1.7107,1.7115,1.7106,1.7137,1.7137,1.7128,1.7129,1.7123,1.7131,1.7131,1.7132,1.7132,0,1.6808,1.6833,1.6863,1.6896,1.6906,1.6922,1.695,1.6969,1.6997,1.701,1.703,1.7047,1.707,1.7074,1.7106,1.71,1.7113,1.7127,1.7127,1.7132,1.7135,1.7134,1.7134,1.7136,1.7135,1.7134,1.7134,0,1.6797,1.6837,1.6861,1.6874,1.6913,1.6924,1.6941,1.6969,1.6985,1.701,1.7021,1.7048,1.7063,1.7084,1.7109,1.7109,1.7138,1.7144,1.715,1.715,1.7156,1.7155,1.7159,1.7164,1.7164,1.7164,1.7164,0,1.6803,1.682,1.6856,1.687,1.6891,1.6917,1.6936,1.6955,1.698,1.6999,1.7019,1.7036,1.7067,1.7088,1.7107,1.7131,1.7138,1.7149,1.7154,1.7147,1.7146,1.7157,1.7157,1.7164,1.7164,1.7164,1.7164,0,1.6794,1.6818,1.6845,1.688,1.6889,1.6903,1.6934,1.6949,1.6968,1.6992,1.6999,1.703,1.7056,1.7082,1.7117,1.713,1.7153,1.716,1.7144,1.7146,1.7151,1.715,1.7163,1.7166,1.7168,1.7168,1.7168,0,1.6795,1.681,1.6846,1.686,1.6876,1.6898,1.6915,1.694,1.6957,1.699,1.7001,1.7028,1.7051,1.7092,1.7118,1.7145,1.7152,1.7155,1.7157,1.715,1.7153,1.7152,1.7153,1.7154,1.7154,1.7154,1.7154,0,1.6796,1.6808,1.683,1.6857,1.6876,1.6898,1.6922,1.6932,1.6962,1.6979,1.7006,1.7024,1.706,1.7087,1.7117,1.7135,1.7149,1.7153,1.7156,1.7149,1.7139,1.7145,1.7142,1.7152,1.7152,1.7153,1.7153,1.7153,1.6793,1.6807,1.6835,1.6859,1.6879,1.69,1.6916,1.6938,1.696,1.6991,1.7005,1.7031,1.7059,1.7101,1.7119,1.714,1.7144,1.7148,1.7149,1.715,1.7149,1.7135,1.7146,1.7146,1.7146,1.7146,1.7146,0,1.6795,1.6814,1.6836,1.6868,1.6887,1.6899,1.6925,1.6941,1.6964,1.6988,1.7011,1.7041,1.7067,1.7095,1.7123,1.7135,1.7142,1.7142,1.7141,1.7145,1.7144,1.7138,1.7135,1.7135,1.7135,1.7135,1.7135,1.7135,1.6799,1.6822,1.6837,1.6871,1.689,1.6916,1.693,1.695,1.697,1.7002,1.7024,1.7042,1.7068,1.7098,1.7123,1.713,1.714,1.7137,1.7147,1.7145,1.7145,1.7146,1.7141,1.7139,1.7139,1.7147,1.7147,1.7147]},{"header":{"parameterUnit":"m.s-1","parameterCategory":1,"la1":30.2991,"la2":30.254,"lo1":-89.0895,"lo2":-89.0444,"dy":0.0017,"dx":0.0017,"nx":28,"ny":28,"refTime":"2025-06-04T21:00:00:Z","depth":0,"parameterNumber":3,"parameterNumberName":"V-component_of_WINDS"},"data":[0,0,0,0,0,0,0,0,0,0,0,0,0,0,0,0,0,0,0,0,0,0,0,0,0,0,0,0,0,0,0,0,0,0,0,0,0,0,0,0,0,0,0,0,0,0,0,0,0,0,0,0,0,0,0,0,0,0,3.4242,3.4242,0,3.4198,3.4198,3.4197,3.4218,3.4219,3.422,3.4221,3.4168,3.4166,3.4164,0,0,0,0,0,0,0,0,0,0,0,0,0,3.4336,3.4334,3.4242,3.4242,3.4241,3.4198,3.4198,3.4197,3.4218,3.4219,3.4221,3.4222,3.4169,3.4166,3.4163,0,0,0,0,0,0,0,0,0,0,0,0,0,3.4294,3.4334,3.4242,3.4246,3.4246,3.4198,3.4198,3.4197,3.4218,3.4219,3.4221,3.4223,3.417,3.4167,3.4163,3.4106,0,0,3.4152,3.415,0,0,0,0,0,0,0,0,3.4296,3.429,3.4246,3.4246,3.4246,3.4216,3.4211,3.4166,3.4217,3.4228,3.4221,3.4223,3.4182,3.4178,3.4165,3.4103,3.4101,3.4151,3.4149,3.4147,3.4146,0,0,0,0,0,0,0,3.4299,3.4292,3.4225,3.4246,3.4245,3.4248,3.4244,3.4203,3.4196,3.4227,3.4229,3.4224,3.4182,3.4169,3.4164,3.41,3.4151,3.4148,3.4146,3.4144,3.3987,3.3986,0,0,0,0,0,0,3.4303,3.4295,3.4226,3.4223,3.4276,3.4245,3.424,3.4223,3.4196,3.4194,3.4222,3.4225,3.4174,3.4169,3.4162,3.4093,3.4147,3.4144,3.4142,3.3989,3.3987,3.3985,0,0,0,0,0,0,3.4305,3.4297,3.4228,3.4259,3.4251,3.4242,3.4222,3.4222,3.4208,3.4193,3.4191,3.4211,3.4175,3.4168,3.412,3.4091,3.4142,3.4139,3.3992,3.3989,3.3986,3.3954,0,0,0,0,0,0,3.4308,3.4297,3.4277,3.4259,3.4249,3.4188,3.4221,3.422,3.4203,3.4206,3.4181,3.4178,3.4176,3.4125,3.4116,3.4087,3.4136,3.3994,3.399,3.3987,3.3957,3.395,3.3944,0,0,0,0,0,3.4311,3.4268,3.4276,3.4268,3.4224,3.4187,3.4181,3.4181,3.4201,3.4179,3.4169,3.4179,3.4096,3.412,3.411,3.4079,3.3996,3.3991,3.3987,3.396,3.3951,3.3944,0,0,0,0,0,0,3.4281,3.4266,3.4274,3.4225,3.4207,3.419,3.4163,3.4172,3.4146,3.415,3.4149,3.4143,3.4094,3.4082,3.4109,3.4022,3.4049,3.4042,3.4032,3.4023,3.4017,3.402,3.4133,0,0,0,0,0,3.4269,3.4242,3.423,3.4187,3.4178,3.4172,3.4156,3.4158,3.4138,3.413,3.4116,3.4094,3.4063,3.4043,3.4013,3.3956,3.395,3.393,3.3923,3.3918,3.3911,3.3879,3.3869,3.3971,3.3971,3.3971,0,0,3.4243,3.4232,3.4214,3.4181,3.4167,3.4137,3.4166,3.4132,3.4109,3.4124,3.4079,3.4068,3.4043,3.399,3.3966,3.3979,3.3882,3.3912,3.3908,3.3904,3.3873,3.3864,3.3855,3.3968,3.3968,3.3969,0,0,3.418,3.417,3.4134,3.412,3.41,3.4096,3.4087,3.4069,3.4063,3.4019,3.4029,3.4,3.3947,3.3929,3.3912,3.3843,3.3851,3.3833,3.3798,3.3766,3.3758,3.3751,3.3725,3.3716,3.3828,3.3827,3.3827,0,3.415,3.4108,3.4113,3.4079,3.4063,3.4078,3.404,3.4025,3.3995,3.3983,3.3998,3.3932,3.3916,3.3859,3.3842,3.3829,3.3817,3.3836,3.3759,3.3752,3.3746,3.3721,3.3711,3.3825,3.3826,3.3826,3.3826,0,3.407,3.4041,3.4013,3.3987,3.3968,3.3932,3.3929,3.3909,3.3913,3.3907,3.386,3.3842,3.3809,3.3796,3.3798,3.3738,3.3746,3.376,3.3787,3.3734,3.371,3.3701,3.3822,3.3823,3.3824,3.3824,0,0,3.3986,3.3965,3.3954,3.3942,3.3922,3.3897,3.3861,3.3831,3.3813,3.3792,3.376,3.3715,3.3728,3.371,3.371,3.3683,3.3627,3.37,3.3699,3.3686,3.3558,3.3546,3.3535,3.3633,3.3631,3.363,3.356,0,3.3921,3.3861,3.3865,3.3806,3.3778,3.3792,3.376,3.3742,3.3736,3.3708,3.37,3.3668,3.3689,3.3678,3.3651,3.364,3.3601,3.3645,3.36,3.3599,3.3605,3.3523,3.3511,3.3446,3.355,3.3549,3.3548,0,3.3837,3.3816,3.3756,3.374,3.3728,3.3699,3.3672,3.3647,3.3626,3.3623,3.3603,3.3608,3.3569,3.3598,3.3542,3.3571,3.3553,3.3545,3.3542,3.3537,3.3569,3.3514,3.3425,3.3415,3.3534,3.3535,3.3536,0,3.378,3.3736,3.3695,3.3684,3.3664,3.3644,3.3634,3.3616,3.3598,3.3573,3.3561,3.3531,3.3514,3.3489,3.3485,3.3507,3.3428,3.3457,3.3422,3.3422,3.3404,3.3405,3.3309,3.3395,3.3395,3.3395,3.3395,0,3.3706,3.3668,3.3669,3.3643,3.3601,3.3604,3.3561,3.3553,3.3537,3.3507,3.3517,3.3489,3.3486,3.3456,3.3452,3.3405,3.3398,3.3392,3.3391,3.3391,3.3391,3.3378,3.3382,3.3392,3.3393,3.3393,3.3394,0,3.3635,3.3634,3.3589,3.3575,3.3571,3.354,3.3526,3.35,3.3495,3.3458,3.3449,3.344,3.3405,3.3399,3.3358,3.3355,3.3299,3.3303,3.3307,3.3307,3.3272,3.3275,3.3163,3.3148,3.3245,3.3244,3.3243,0,3.3587,3.3559,3.3542,3.3525,3.3515,3.3486,3.3469,3.3471,3.3451,3.3426,3.3402,3.337,3.3343,3.3287,3.3274,3.3242,3.3245,3.3208,3.324,3.324,3.3242,3.3244,3.324,3.3201,3.32,3.3199,3.3198,0,3.3502,3.3503,3.3479,3.3454,3.3434,3.3413,3.3394,3.3379,3.3378,3.3355,3.3322,3.3301,3.326,3.3226,3.3195,3.3181,3.3188,3.3189,3.3179,3.3177,3.318,3.3177,3.3289,3.3191,3.3192,3.3192,3.3193,3.3193,3.344,3.3415,3.34,3.3372,3.3359,3.3341,3.3316,3.3309,3.3282,3.3251,3.3253,3.3215,3.3194,3.3153,3.3137,3.3106,3.3117,3.3103,3.3099,3.3095,3.3092,3.3186,3.31,3.31,3.3101,3.3101,3.3101,0,3.3354,3.3345,3.332,3.3295,3.3272,3.3285,3.3264,3.3244,3.3212,3.3193,3.3168,3.3128,3.3096,3.3082,3.3049,3.3026,3.3029,3.3017,3.3018,3.3015,3.3084,3.3095,3.3016,3.3016,3.3016,3.3016,3.3016,3.3016,3.3307,3.3266,3.3265,3.3217,3.3207,3.3173,3.316,3.3143,3.3128,3.3085,3.3059,3.3051,3.3033,3.3,3.2969,3.2966,3.2952,3.2939,3.2937,3.3001,3.301,3.3018,3.3029,3.2937,3.2937,3.287,3.287,3.2869]}]]